CW6532 Weather Reports


Display with metric or nautical units.
time (UTC)temp
F
wind
direction
speed
MPH
gust
MPH
rain 1hr
in
rain 24hr
in
rain mn
in
humidity
%
barometer
mb
20260506024345 66 305 8.0 14.0 0.00 0.30 0.22 33 1020.6
20260506023337 66 306 7.0 15.0 0.00 0.30 0.22 34 1020.4
20260506022327 66 285 9.0 14.0 0.00 0.30 0.22 34 1020.3
20260506021355 67 255 9.0 15.0 0.00 0.30 0.22 34 1019.9
20260506020342 67 264 9.0 17.0 0.00 0.30 0.22 33 1019.8
20260506015335 68 265 12.0 20.0 0.00 0.31 0.22 31 1019.5
20260506014325 70 280 10.0 20.0 0.00 0.31 0.22 28 1019.5
20260506013328 70 289 10.0 19.0 0.00 0.31 0.22 28 1019.4
20260506012336 70 242 15.0 25.0 0.00 0.31 0.22 27 1019.3
20260506011326 71 265 9.0 24.0 0.00 0.31 0.22 28 1019.2
20260506010335 70 273 10.0 22.0 0.00 0.31 0.22 28 1019.1
20260506005330 71 278 8.0 23.0 0.00 0.32 0.22 28 1019.0
20260506004357 71 243 9.0 21.0 0.00 0.32 0.22 28 1018.9
20260506003354 71 349 11.0 24.0 0.00 0.32 0.22 28 1018.8
20260506002321 70 228 12.0 21.0 0.00 0.32 0.22 28 1018.8
20260506001329 72 251 13.0 22.0 0.00 0.32 0.22 27 1018.8
20260506000323 73 239 15.0 21.0 0.00 0.32 0.22 25 1018.7
20260505235332 73 265 13.0 22.0 0.00 0.32 0.22 24 1018.7
20260505234325 72 230 12.0 26.0 0.00 0.32 0.22 26 1018.6
20260505233347 73 240 14.0 24.0 0.00 0.32 0.22 26 1018.6
20260505232337 72 222 13.0 22.0 0.00 0.32 0.22 25 1018.7
20260505231346 73 273 16.0 24.0 0.00 0.32 0.22 24 1018.7
20260505230356 73 233 19.0 27.0 0.00 0.32 0.22 24 1018.7
20260505225319 73 273 14.0 33.0 0.00 0.32 0.22 24 1018.7
20260505224343 73 279 15.0 29.0 0.00 0.32 0.22 25 1018.7
20260505223331 73 279 15.0 28.0 0.00 0.32 0.22 27 1018.9
20260505222319 74 261 18.0 27.0 0.00 0.32 0.22 28 1019.0
20260505221343 74 276 12.0 28.0 0.00 0.32 0.22 29 1019.0
20260505220328 73 234 11.0 31.0 0.00 0.32 0.22 31 1019.1
20260505215331 74 263 18.0 30.0 0.00 0.32 0.22 31 1019.2
20260505214335 72 242 15.0 27.0 0.00 0.32 0.22 34 1019.2
20260505213323 73 263 12.0 21.0 0.00 0.32 0.22 34 1019.4
20260505212327 73 234 16.0 28.0 0.00 0.32 0.22 34 1019.4
20260505211336 72 232 20.0 28.0 0.00 0.32 0.22 34 1019.4
20260505210354 72 247 17.0 26.0 0.00 0.32 0.22 33 1019.4
20260505205318 73 270 17.0 25.0 0.00 0.32 0.22 36 1019.5
20260505204322 73 252 16.0 25.0 0.00 0.32 0.22 36 1019.7
20260505203342 71 269 10.0 23.0 0.00 0.32 0.22 39 1019.8
20260505202325 74 250 17.0 26.0 0.00 0.32 0.22 37 1019.8
20260505201352 73 279 16.0 26.0 0.00 0.32 0.22 37 1019.8
20260505200320 73 245 13.0 24.0 0.00 0.32 0.22 43 1020.0
20260505195354 73 256 8.0 16.0 0.00 0.32 0.22 46 1020.1
20260505194342 72 231 7.0 16.0 0.00 0.32 0.22 49 1020.1
20260505193338 71 292 8.0 16.0 0.00 0.32 0.22 52 1020.3
20260505192329 72 220 6.0 10.0 0.00 0.32 0.22 52 1020.1
20260505191338 72 333 3.0 12.0 0.00 0.32 0.22 53 1020.3
20260505190328 72 273 6.0 12.0 0.00 0.32 0.22 52 1020.5
20260505185335 71 261 4.0 13.0 0.00 0.32 0.22 54 1020.8
20260505184320 71 279 4.0 11.0 0.00 0.32 0.22 55 1020.9
20260505183357 71 262 5.0 10.0 0.00 0.32 0.22 56 1020.9
20260505182328 71 248 6.0 16.0 0.00 0.32 0.22 57 1021.1
20260505181334 71 249 8.0 12.0 0.00 0.32 0.22 54 1021.1
20260505180319 70 257 5.0 12.0 0.00 0.32 0.22 58 1021.3
20260505175327 70 274 4.0 10.0 0.00 0.32 0.22 58 1021.4
20260505174335 69 104 1.0 9.0 0.00 0.32 0.22 59 1021.4
20260505173356 68 251 6.0 13.0 0.00 0.32 0.22 62 1021.5
20260505172324 68 336 4.0 8.0 0.00 0.32 0.22 62 1021.5
20260505171333 68 267 2.0 7.0 0.00 0.32 0.22 62 1021.5
20260505170343 67 345 3.0 6.0 0.00 0.32 0.22 65 1021.4
20260505165355 66 182 2.0 4.0 0.00 0.32 0.22 66 1021.5
20260505164320 65 257 1.0 6.0 0.00 0.32 0.22 71 1021.6
20260505163336 65 257 2.0 4.0 0.00 0.32 0.22 71 1021.6
20260505162322 64 240 1.0 5.0 0.00 0.32 0.22 72 1021.6
20260505161329 64 263 1.0 5.0 0.00 0.32 0.22 73 1021.6
20260505160323 63 263 2.0 4.0 0.00 0.32 0.22 74 1021.4
20260505153351 62 76 0.0 0.0 0.00 0.32 0.22 83 1021.4
20260505152338 62 76 0.0 1.0 0.00 0.32 0.22 84 1021.4
20260505151326 62 76 0.0 1.0 0.00 0.32 0.22 86 1021.4
20260505150334 61 76 0.0 2.0 0.00 0.32 0.22 88 1021.2
20260505140329 60 76 3.0 4.0 0.00 0.32 0.22 95 1020.9
20260505124343 58 155 3.0 9.0 0.02 0.32 0.22 96 1020.3
20260505123358 58 144 3.0 6.0 0.02 0.32 0.22 96 1020.1
20260505122326 58 73 0.0 3.0 0.02 0.31 0.21 96 1020.2
20260505121335 58 21 0.0 2.0 0.02 0.31 0.21 96 1020.1
20260505120326 58 21 0.0 3.0 0.03 0.31 0.21 96 1020.0
20260505115334 58 20 4.0 5.0 0.03 0.30 0.20 96 1019.5
20260505114322 58 67 2.0 4.0 0.03 0.30 0.20 96 1019.6
20260505113344 57 135 0.0 7.0 0.03 0.30 0.20 96 1019.8
20260505112333 57 46 2.0 3.0 0.03 0.29 0.19 96 1020.3
20260505111323 57 55 3.0 6.0 0.04 0.29 0.19 96 1019.9
20260505110333 57 110 1.0 3.0 0.03 0.28 0.18 96 1020.4
20260505101357 57 53 4.0 9.0 0.02 0.25 0.15 94 1021.1
20260505100323 57 67 6.0 9.0 0.03 0.25 0.15 93 1021.0
20260505095353 57 124 7.0 9.0 0.03 0.25 0.15 92 1021.1
20260505094336 57 109 7.0 17.0 0.04 0.25 0.15 90 1021.2
20260505093328 57 140 9.0 14.0 0.04 0.24 0.15 90 1021.4
20260505092336 57 175 9.0 14.0 0.04 0.24 0.14 91 1021.8
20260505091325 57 166 8.0 13.0 0.04 0.23 0.13 91 1021.8
20260505090336 57 169 9.0 14.0 0.05 0.22 0.12 92 1022.5
20260505085325 57 163 8.0 12.0 0.07 0.22 0.12 93 1022.7
20260505084334 57 141 6.0 11.0 0.07 0.21 0.11 93 1022.9
20260505083353 57 164 5.0 9.0 0.08 0.20 0.10 93 1023.2
20260505082320 57 167 7.0 10.0 0.08 0.20 0.10 92 1023.5
20260505081327 58 189 6.0 8.0 0.08 0.19 0.09 91 1023.7
20260505080337 58 153 2.0 5.0 0.07 0.17 0.07 90 1024.1
20260505075327 58 159 1.0 5.0 0.05 0.15 0.05 90 1024.1
20260505074337 58 201 2.0 5.0 0.05 0.14 0.04 89 1024.2
20260505073329 58 176 2.0 3.0 0.03 0.12 0.02 88 1024.3
20260505072337 58 176 0.0 0.0 0.04 0.12 0.02 87 1024.1
20260505071323 58 176 1.0 3.0 0.04 0.11 0.01 86 1024.0
20260505070333 59 45 0.0 3.0 0.03 0.10 0.00 84 1024.0
20260505065333 59 45 1.0 4.0 0.04 0.10 0.10 81 1023.8
20260505064401 59 45 3.0 4.0 0.03 0.09 0.09 79 1023.6
20260505063330 59 27 3.0 4.0 0.03 0.09 0.09 79 1023.7
20260505062334 59 27 0.0 2.0 0.02 0.08 0.08 78 1023.9
20260505061318 59 27 2.0 3.0 0.01 0.07 0.07 77 1023.8
20260505060347 60 271 2.0 5.0 0.01 0.07 0.07 78 1023.8
20260505055334 60 65 4.0 6.0 0.00 0.06 0.06 75 1023.5
20260505054342 60 71 4.0 8.0 0.01 0.06 0.06 74 1023.4
20260505053335 60 71 4.0 5.0 0.01 0.06 0.06 70 1023.6
20260505052323 60 71 2.0 5.0 0.01 0.06 0.06 70 1023.9
20260505051332 60 90 1.0 7.0 0.01 0.06 0.06 70 1024.0
20260505050321 59 90 2.0 6.0 0.01 0.06 0.06 72 1023.9
20260505041339 57 74 3.0 5.0 0.01 0.05 0.05 82 1023.6
20260505040348 57 34 3.0 5.0 0.01 0.05 0.05 82 1023.4
20260505035336 56 69 3.0 5.0 0.01 0.05 0.05 82 1023.1
20260505034358 56 54 4.0 9.0 0.01 0.05 0.05 83 1022.9
20260505033334 56 67 4.0 9.0 0.02 0.05 0.05 85 1023.0
20260505032324 57 94 8.0 11.0 0.02 0.05 0.05 84 1023.1
20260505031333 57 51 8.0 11.0 0.01 0.04 0.04 81 1023.2
20260505030323 57 5 4.0 10.0 0.01 0.04 0.04 81 1023.5
20260505025332 58 53 6.0 10.0 0.02 0.04 0.04 78 1023.8